Weather History for KBTA - February, 2012

Change the Weather History Date:

Monday, February 20, 2012

  Actual Average (KOMA) Record (KOMA)
Temperature  
Mean Temperature 38 °F 30 °F  
Max Temperature 41 °F 40 °F 67 °F (1930)
Min Temperature 34 °F 20 °F -11 °F (1918)
Degree Days  
Heating Degree Days 28 35  
Month to date heating degree days 763  
Since 1 July heating degree days 4528  
Cooling Degree Days 0 0  
Month to date cooling degree days 0  
Year to date cooling degree days 0  
Moisture  
Dew Point 31 °F    
Average Humidity 79    
Maximum Humidity 95    
Minimum Humidity 64    
Precipitation  
Precipitation 0.12 in 0.03 in 0.50 in (1919)
Month to date precipitation 0.56  
Year to date precipitation 1.28  
Snow  
Snow 0.00 in 0.20 in - ()
Month to date snowfall 4.6  
Since 1 July snowfall 19.7  
Snow Depth -    
Sea Level Pressure  
Sea Level Pressure 29.78 in    
Wind  
Wind Speed 15 mph (SE)    
Max Wind Speed 21 mph    
Max Gust Speed 30 mph    
Visibility 7 miles    
Events Rain    
T = Trace of Precipitation, MM = Missing Value Source: NWS Daily Summary

Daily Weather History Graph

Daily Weather History Graph

Search for Another Location

Airport or City:

Trip Planner

Search our weather history database for the weather conditions in past years. The results will help you decide how hot, cold, wet, or windy it might be!

Date:

Astronomy

Feb. 20, 2012 Rise Set
Actual Time 7:13 AM CST 6:03 PM CST
Civil Twilight 6:45 AM CST 6:31 PM CST
Nautical Twilight 6:12 AM CST 7:04 PM CST
Astronomical Twilight 5:40 AM CST 7:36 PM CST
Moon 6:10 AM CST (2/20) 5:09 PM CST (2/20)
Length of Visible Light 11h 46m
Length of Day
10h 50m
Waning Crescent, 1% of the Moon is Illuminated
Feb 20
Waning Crescent
Feb 21
New
Feb 29
First Quarter
Mar 8
Full
Mar 14
Last Quarter

Hourly Weather History & Observations

Time (CST) Temp. Windchill Dew Point Humidity Pressure Visibility Wind Dir Wind Speed Gust Speed Precip Events Conditions
12:15 AM 36.7 °F 28.0 °F 26.6 °F 67% 29.96 in 10.0 mi SE 13.8 mph 19.6 mph N/A   Clear
12:35 AM 36.7 °F 27.6 °F 26.4 °F 66% 29.96 in 10.0 mi SE 15.0 mph 20.7 mph N/A   Clear
12:55 AM 36.3 °F 27.5 °F 26.2 °F 67% 29.95 in 10.0 mi SE 13.8 mph - N/A   Clear
1:15 AM 36.0 °F 26.3 °F 25.9 °F 67% 29.94 in 10.0 mi SE 16.1 mph 23.0 mph N/A   Scattered Clouds
1:35 AM 36.5 °F 28.2 °F 25.7 °F 65% 29.93 in 10.0 mi SE 12.7 mph 19.6 mph N/A   Mostly Cloudy
1:55 AM 36.1 °F 27.3 °F 25.7 °F 66% 29.93 in 10.0 mi SE 13.8 mph 20.7 mph N/A   Overcast
2:15 AM 35.2 °F 27.1 °F 25.3 °F 67% 29.93 in 10.0 mi SE 11.5 mph - N/A   Scattered Clouds
2:35 AM 35.1 °F 26.9 °F 25.2 °F 67% 29.92 in 10.0 mi ESE 11.5 mph 18.4 mph N/A   Clear
2:55 AM 34.7 °F 26.4 °F 25.0 °F 68% 29.91 in 10.0 mi ESE 11.5 mph - N/A   Clear
3:15 AM 34.7 °F 25.9 °F 25.3 °F 69% 29.91 in 10.0 mi ESE 12.7 mph - N/A   Mostly Cloudy
3:35 AM 34.7 °F 26.4 °F 25.3 °F 69% 29.90 in 10.0 mi ESE 11.5 mph 17.3 mph N/A   Overcast
3:55 AM 34.7 °F 25.5 °F 25.3 °F 69% 29.89 in 10.0 mi ESE 13.8 mph - N/A   Mostly Cloudy
4:15 AM 35.1 °F 25.9 °F 25.0 °F 67% 29.88 in 10.0 mi SE 13.8 mph 20.7 mph N/A   Mostly Cloudy
4:35 AM 35.1 °F 25.2 °F 25.2 °F 67% 29.87 in 10.0 mi SE 16.1 mph 24.2 mph N/A   Scattered Clouds
4:55 AM 34.9 °F 27.1 °F 25.0 °F 67% 29.88 in 10.0 mi SE 10.4 mph - N/A   Scattered Clouds
5:15 AM 36.5 °F 26.7 °F 25.2 °F 64% 29.88 in 10.0 mi SE 17.3 mph 20.7 mph N/A   Overcast
5:35 AM 36.1 °F 26.9 °F 25.5 °F 65% 29.87 in 10.0 mi SE 15.0 mph 20.7 mph N/A   Overcast
5:55 AM 36.0 °F 26.3 °F 25.7 °F 66% 29.86 in 10.0 mi SE 16.1 mph 21.9 mph N/A   Overcast
6:15 AM 35.6 °F 27.1 °F 25.7 °F 67% 29.85 in 10.0 mi ESE 12.7 mph - N/A   Overcast
6:35 AM 34.9 °F 25.7 °F 25.7 °F 69% 29.84 in 10.0 mi ESE 13.8 mph - N/A   Overcast
6:55 AM 35.1 °F 24.8 °F 25.7 °F 69% 29.82 in 10.0 mi ESE 17.3 mph - N/A   Mostly Cloudy
7:15 AM 35.4 °F 25.3 °F 26.2 °F 69% 29.81 in 10.0 mi ESE 17.3 mph - N/A   Scattered Clouds
7:35 AM 35.6 °F 24.5 °F 26.6 °F 70% 29.81 in 10.0 mi SE 20.7 mph 25.3 mph N/A   Overcast
7:55 AM 35.2 °F 25.4 °F 28.4 °F 76% 29.81 in 4.0 mi SE 16.1 mph 23.0 mph 0.01 in Rain Light Rain
8:15 AM 34.9 °F 26.2 °F 29.3 °F 80% 29.81 in 10.0 mi ESE 12.7 mph 17.3 mph N/A   Overcast
8:35 AM 34.7 °F 25.5 °F 29.8 °F 82% 29.80 in 7.0 mi ESE 13.8 mph - 0.01 in   Overcast
8:55 AM 34.9 °F 27.1 °F 30.0 °F 82% 29.80 in 10.0 mi SE 10.4 mph - 0.01 in   Overcast
9:15 AM 35.6 °F 26.2 °F 30.4 °F 81% 29.78 in 10.0 mi SE 15.0 mph 19.6 mph N/A   Overcast
9:35 AM 36.9 °F 27.5 °F 30.9 °F 79% 29.78 in 10.0 mi SE 16.1 mph 20.7 mph N/A   Overcast
9:55 AM 37.8 °F 27.7 °F 31.6 °F 79% 29.78 in 7.0 mi SSE 19.6 mph 25.3 mph N/A Rain Rain
10:15 AM 37.4 °F 27.2 °F 32.0 °F 81% 29.77 in 7.0 mi SE 19.6 mph 25.3 mph 0.01 in Rain Light Rain
10:35 AM 37.4 °F 26.9 °F 33.3 °F 85% 29.76 in 5.0 mi SE 20.7 mph 27.6 mph 0.04 in Rain Rain
10:55 AM 37.8 °F 27.4 °F 34.0 °F 86% 29.75 in 5.0 mi SE 20.7 mph 26.5 mph 0.05 in Rain Light Rain
11:15 AM 38.3 °F 28.7 °F 34.0 °F 84% 29.74 in 10.0 mi SE 18.4 mph 26.5 mph N/A   Overcast
11:35 AM 38.3 °F 28.7 °F 34.0 °F 84% 29.74 in 10.0 mi SE 18.4 mph 28.8 mph N/A   Overcast
11:55 AM 38.7 °F 29.5 °F 34.0 °F 83% 29.73 in 10.0 mi SE 17.3 mph 21.9 mph N/A   Overcast
12:15 PM 39.0 °F 30.6 °F 34.2 °F 83% 29.72 in 10.0 mi SE 15.0 mph 21.9 mph N/A   Overcast
12:35 PM 39.0 °F 29.9 °F 35.1 °F 86% 29.71 in 3.0 mi SE 17.3 mph 23.0 mph N/A Rain Light Rain
12:55 PM 39.2 °F 31.2 °F 35.2 °F 86% 29.69 in 10.0 mi SE 13.8 mph 18.4 mph N/A   Overcast
1:15 PM 39.2 °F 32.0 °F 35.6 °F 87% 29.68 in 3.0 mi SE 11.5 mph - N/A   Overcast
1:35 PM 39.2 °F 32.0 °F 36.3 °F 89% 29.67 in 1.5 mi SE 11.5 mph - N/A Rain Rain
1:55 PM 39.4 °F 30.7 °F 37.4 °F 93% 29.66 in 1.2 mi SE 16.1 mph 19.6 mph 0.01 in Rain Rain
2:15 PM 40.1 °F 31.3 °F 38.1 °F 93% 29.64 in 1.5 mi SE 17.3 mph 25.3 mph N/A Rain Light Rain
2:35 PM 40.3 °F 31.6 °F 38.5 °F 93% 29.64 in 2.0 mi SSE 17.3 mph 24.2 mph N/A Rain Light Rain
2:55 PM 40.6 °F 31.4 °F 38.8 °F 93% 29.64 in 2.0 mi SSE 19.6 mph 23.0 mph N/A   Light Drizzle
3:15 PM 41.2 °F 32.4 °F 39.4 °F 93% 29.62 in 2.0 mi SSE 18.4 mph 29.9 mph N/A Rain Light Rain
3:35 PM 41.5 °F 32.4 °F 39.7 °F 93% 29.62 in 1.8 mi SSE 20.7 mph 26.5 mph N/A Rain Rain
3:55 PM 41.5 °F 33.2 °F 39.9 °F 94% 29.62 in 1.8 mi SE 17.3 mph - 0.01 in Rain Light Rain
4:15 PM 41.4 °F 33.0 °F 39.7 °F 94% 29.62 in 2.0 mi SE 17.3 mph 23.0 mph N/A Rain Rain
4:35 PM 41.2 °F 33.4 °F 39.6 °F 94% 29.62 in 2.5 mi SE 15.0 mph 24.2 mph 0.01 in Rain Light Rain
4:55 PM 41.4 °F 34.0 °F 39.7 °F 94% 29.62 in 2.5 mi SE 13.8 mph 21.9 mph 0.02 in Rain Light Rain
5:15 PM 41.2 °F 34.1 °F 39.6 °F 94% 29.61 in 2.5 mi SE 12.7 mph 18.4 mph 0.01 in Rain Light Rain
5:35 PM 41.2 °F 33.7 °F 39.7 °F 95% 29.61 in 4.0 mi SE 13.8 mph 20.7 mph 0.01 in   Light Drizzle
5:55 PM 41.2 °F 33.4 °F 39.7 °F 95% 29.61 in 5.0 mi SE 15.0 mph - 0.01 in   Light Drizzle
6:15 PM 41.2 °F 33.7 °F 39.9 °F 95% 29.61 in 7.0 mi SE 13.8 mph 17.3 mph N/A   Overcast
6:35 PM 41.2 °F 33.7 °F 39.7 °F 95% 29.61 in 7.0 mi SE 13.8 mph 20.7 mph N/A   Overcast
6:55 PM 41.2 °F 33.0 °F 39.6 °F 94% 29.60 in 7.0 mi SE 16.1 mph 21.9 mph N/A   Overcast
7:15 PM 41.0 °F 32.8 °F 39.4 °F 94% 29.60 in 10.0 mi SE 16.1 mph 21.9 mph N/A   Overcast
7:35 PM 40.8 °F 32.3 °F 39.2 °F 94% 29.59 in 7.0 mi SE 17.3 mph - N/A   Overcast
7:55 PM 40.6 °F 33.4 °F 39.0 °F 94% 29.59 in 7.0 mi SE 12.7 mph 17.3 mph N/A   Overcast
8:15 PM 40.5 °F 33.6 °F 39.0 °F 95% 29.58 in 7.0 mi SE 11.5 mph - N/A   Overcast
8:35 PM 40.6 °F 34.3 °F 39.0 °F 94% 29.59 in 7.0 mi SSE 10.4 mph - N/A   Overcast
8:55 PM 40.6 °F 35.4 °F 38.8 °F 93% 29.58 in 7.0 mi SE 8.1 mph - N/A   Overcast
9:15 PM 40.5 °F 34.6 °F 38.7 °F 93% 29.58 in 5.0 mi SE 9.2 mph - N/A Rain Light Rain
9:35 PM 40.5 °F 34.6 °F 38.7 °F 93% 29.59 in 5.0 mi SSE 9.2 mph - N/A   Light Drizzle
9:55 PM 40.3 °F 34.4 °F 38.7 °F 94% 29.59 in 4.0 mi SSE 9.2 mph - 0.01 in Rain Light Rain
10:15 PM 40.5 °F 35.8 °F 38.8 °F 94% 29.59 in 4.0 mi SSE 6.9 mph - N/A Rain Light Rain
10:35 PM 40.5 °F 35.8 °F 38.8 °F 94% 29.59 in 4.0 mi SSE 6.9 mph - 0.01 in Rain Light Rain
10:55 PM 39.4 °F 32.3 °F 37.9 °F 95% 29.60 in 1.5 mi West 11.5 mph 16.1 mph 0.01 in Rain Rain
11:15 PM 39.6 °F 32.5 °F 38.1 °F 95% 29.62 in 2.5 mi West 11.5 mph 16.1 mph N/A   Drizzle
11:35 PM 36.7 °F 26.6 °F 35.1 °F 94% 29.63 in 4.0 mi NW 18.4 mph 27.6 mph N/A Rain Light Rain
11:55 PM 35.4 °F 25.6 °F 33.6 °F 93% 29.65 in 3.0 mi NW 16.1 mph 24.2 mph 0.01 in   Light Drizzle